TimeEDT,TemperatureF,Dew PointF,Humidity,Sea Level PressureIn,VisibilityMPH,Wind Direction,Wind SpeedMPH,Gust SpeedMPH,PrecipitationIn,Events,Conditions,WindDirDegrees,DateUTC
12:53 AM,64.9,53.1,65,30.02,10.0,Calm,Calm,-,N/A,,Clear,0,2013-03-18 04:53:00
1:53 AM,64.0,53.1,67,30.01,10.0,South,3.5,-,N/A,,Mostly Cloudy,180,2013-03-18 05:53:00
2:53 AM,62.1,53.1,72,30.01,10.0,Calm,Calm,-,N/A,,Clear,0,2013-03-18 06:53:00
3:53 AM,61.0,54.0,78,30.02,10.0,Calm,Calm,-,N/A,,Overcast,0,2013-03-18 07:53:00
4:53 AM,61.0,54.0,78,30.03,10.0,Calm,Calm,-,N/A,,Overcast,0,2013-03-18 08:53:00
5:53 AM,59.0,53.1,81,30.04,10.0,NNE,4.6,-,N/A,,Mostly Cloudy,20,2013-03-18 09:53:00
6:53 AM,57.9,53.1,84,30.06,8.0,ENE,4.6,-,N/A,,Overcast,70,2013-03-18 10:53:00
7:46 AM,57.2,53.6,88,30.07,7.0,NNE,9.2,-,N/A,,Overcast,30,2013-03-18 11:46:00
7:53 AM,57.0,53.1,87,30.07,5.0,NNE,8.1,-,N/A,,Overcast,30,2013-03-18 11:53:00
8:04 AM,55.4,53.6,94,30.07,5.0,NNE,9.2,-,N/A,,Overcast,30,2013-03-18 12:04:00
8:46 AM,55.4,51.8,88,30.08,6.0,NE,6.9,-,N/A,,Overcast,40,2013-03-18 12:46:00
8:53 AM,55.9,52.0,87,30.08,6.0,ENE,8.1,-,N/A,,Overcast,60,2013-03-18 12:53:00
9:53 AM,57.0,52.0,83,30.08,7.0,ENE,6.9,-,N/A,,Overcast,70,2013-03-18 13:53:00
10:39 AM,60.8,51.8,72,30.07,8.0,East,6.9,-,N/A,,Scattered Clouds,80,2013-03-18 14:39:00
10:53 AM,61.0,53.1,75,30.06,8.0,Variable,5.8,-,N/A,,Partly Cloudy,0,2013-03-18 14:53:00
11:32 AM,62.6,53.6,72,30.05,8.0,SE,8.1,-,N/A,,Mostly Cloudy,130,2013-03-18 15:32:00
11:53 AM,64.9,55.0,70,30.04,8.0,SE,9.2,-,N/A,,Overcast,140,2013-03-18 15:53:00
12:53 PM,63.0,55.0,75,30.03,9.0,SE,5.8,-,N/A,,Overcast,140,2013-03-18 16:53:00
1:42 PM,62.6,57.2,82,30.01,2.0,South,6.9,-,0.00,Rain,Light Rain,170,2013-03-18 17:42:00
1:53 PM,61.0,57.9,90,30.00,2.0,SSE,5.8,-,0.00,Rain,Light Rain,160,2013-03-18 17:53:00
1:58 PM,60.8,59.0,94,30.01,2.5,SSE,5.8,-,0.00,Rain,Light Rain,160,2013-03-18 17:58:00
2:13 PM,60.8,59.0,94,29.99,2.5,SSE,4.6,-,0.00,Rain,Light Rain,160,2013-03-18 18:13:00
2:26 PM,62.6,59.0,88,29.98,4.0,Calm,Calm,-,0.00,,Overcast,0,2013-03-18 18:26:00
2:53 PM,63.0,59.0,87,29.96,8.0,Variable,3.5,-,0.00,,Overcast,0,2013-03-18 18:53:00
3:32 PM,64.4,59.0,83,29.95,10.0,Variable,4.6,-,N/A,,Overcast,0,2013-03-18 19:32:00
3:53 PM,66.0,59.0,78,29.93,10.0,SSE,4.6,-,N/A,,Overcast,150,2013-03-18 19:53:00
4:03 PM,66.2,57.2,73,29.93,10.0,SE,4.6,-,N/A,,Overcast,130,2013-03-18 20:03:00
4:12 PM,66.2,57.2,73,29.93,10.0,SSE,3.5,-,N/A,,Overcast,150,2013-03-18 20:12:00
4:53 PM,64.0,59.0,84,29.92,8.0,NE,4.6,-,N/A,,Overcast,40,2013-03-18 20:53:00
5:53 PM,66.9,59.0,76,29.89,8.0,NE,5.8,-,N/A,,Overcast,50,2013-03-18 21:53:00
6:53 PM,66.9,57.0,70,29.88,10.0,SSE,4.6,-,N/A,,Overcast,150,2013-03-18 22:53:00
7:53 PM,66.0,55.9,70,29.87,10.0,SSE,6.9,-,N/A,,Overcast,150,2013-03-18 23:53:00
8:53 PM,63.0,55.9,78,29.84,10.0,SSE,9.2,-,N/A,,Scattered Clouds,150,2013-03-19 00:53:00
9:53 PM,63.0,57.0,81,29.87,10.0,SSW,6.9,-,N/A,,Scattered Clouds,200,2013-03-19 01:53:00
10:09 PM,53.6,48.2,82,29.97,6.0,NNW,25.3,46.0,0.01,Rain,Rain,330,2013-03-19 02:09:00
10:15 PM,51.8,46.4,82,30.00,2.5,NNW,20.7,40.3,0.11,Rain,Heavy Rain,340,2013-03-19 02:15:00
10:19 PM,50.0,46.4,87,29.98,1.8,North,18.4,36.8,0.18,Rain,Heavy Rain,360,2013-03-19 02:19:00
10:24 PM,50.0,46.4,87,29.97,2.0,North,16.1,31.1,0.22,Rain,Heavy Rain,10,2013-03-19 02:24:00
10:29 PM,50.0,46.4,87,29.95,3.0,North,17.3,31.1,0.26,Rain,Heavy Rain,10,2013-03-19 02:29:00
10:53 PM,50.0,48.0,93,29.95,6.0,NNE,8.1,18.4,0.34,Rain,Rain,20,2013-03-19 02:53:00
11:53 PM,50.0,48.0,93,29.87,7.0,ESE,10.4,-,0.22,Rain,Rain,110,2013-03-19 03:53:00